sat.trackr.live / text

‹ back to catalog

STARLINK-37026

NORAD 68075 · 2026-042G

PAYLOAD ACTIVE UNKNOWN

§ Identity

Operator
Country
US
Launch date
2026-03-04
Launch site
AFETR
Launch vehicle
Mass (kg)
RCS (m²)

Purposes: comms

External: N2YO · Heavens-Above · Gunter

§ Orbital elements

Epoch: 2026-05-25T03:08:25.393344Z

Period
93.85 min
Inclination
53.1581°
Eccentricity
0.0001426
Mean motion
15.34408066 rev/d
Perigee alt
461.7 km
Apogee alt
463.7 km
Semi-major
6,840.8 km
B*
5.7402e-4
RAAN
183.3175°
Arg perigee
101.3202°
Mean anomaly
258.7960°
Rev number
1,401

§ Raw data

STARLINK-370261 68075U 26042G   26145.13084946  .00019072  00000+0  57402-3 0  99922 68075  53.1581 183.3175 0001426 101.3202 258.7960 15.34408066 14011

JSON: /api/v1/satellites/68075 · /tle

For live sub-satellite position, see the globe view (requires WebGL).

§ Visibility from observer

Set your observer location to see the next 7 days of passes ≥ 10°. The values pass through the URL so the page stays shareable.

No JS? Fill the form by hand. The geolocation button needs JavaScript.